Location: Newark
(46.1292°N, 1.0086°W)
Time: 00:16:54
(UTC+00:00)

S-56A Canister/Altair - Visible Passes

Search period start: 12 November 2019 00:00
Search period end: 22 November 2019 00:00
Orbit: 634 x 2498 km, 38.9° (Epoch: 10 November)

Date Brightness Start Highest point End Pass type
(mag) Time Alt. Az. Time Alt. Az. Time Alt. Az.
12 Nov 10.1 17:14:57 10° SSE 17:17:18 12° SSE 17:19:27 10° SE visible
12 Nov 9.2 19:15:09 10° SW 19:19:55 26° S 19:19:55 26° S visible
13 Nov 9.0 18:42:09 10° SW 18:48:10 27° SSE 18:49:06 26° SSE visible
13 Nov 10.4 20:46:02 10° WSW 20:46:31 12° WSW 20:46:31 12° WSW visible
14 Nov 9.3 18:09:06 10° SSW 18:15:31 26° SSE 18:18:15 19° SE visible
14 Nov 9.8 20:13:00 10° WSW 20:15:40 22° SW 20:15:40 22° SW visible
15 Nov 9.6 17:36:02 10° SSW 17:42:49 26° SSE 17:47:23 12° ESE visible
15 Nov 9.0 19:39:54 10° WSW 19:44:49 34° SSW 19:44:49 34° SSW visible
16 Nov 9.9 17:02:55 10° SSW 17:10:05 25° SSE 17:15:24 10° ESE visible
16 Nov 8.6 19:06:43 10° WSW 19:13:46 40° S 19:13:56 40° S visible
17 Nov 8.7 18:33:28 10° WSW 18:41:06 41° S 18:43:03 33° SE visible
17 Nov 10.1 20:38:33 10° WSW 20:40:28 18° WSW 20:40:28 18° WSW visible
18 Nov 9.1 18:00:09 10° SW 18:08:24 41° S 18:12:08 21° ESE visible
18 Nov 9.4 20:05:22 10° WSW 20:09:34 30° SW 20:09:34 30° SW visible
19 Nov 9.3 17:26:47 10° SW 17:35:39 41° SSE 17:41:14 12° ESE visible
19 Nov 8.7 19:32:06 10° WSW 19:38:40 43° SSW 19:38:40 43° SSW visible
20 Nov 9.6 16:53:23 10° SW 17:02:50 40° SSE 17:09:19 10° E visible
20 Nov 8.5 18:58:45 10° WSW 19:06:42 47° S 19:07:45 43° SSE visible
20 Nov 10.6 21:04:30 10° W 21:05:11 12° WSW 21:05:11 12° WSW visible
21 Nov 8.9 18:25:19 10° WSW 18:34:01 49° S 18:36:52 31° SE visible
21 Nov 10.0 20:31:13 10° W 20:34:17 22° WSW 20:34:17 22° WSW visible
